Ask Your Question

razon_22's profile - karma

razon_22's karma change log

10 0 Find values in Column B that are not in column A? ( 2018-07-10 18:40:59 +0200 )

10 0 How do I begin page numbers on page 2 in Writer ( 2018-05-20 15:36:45 +0200 )

10 0 Select multiple cells of a table in Writer like in Calc ( 2018-03-12 01:12:02 +0200 )

10 0 can not update existing writer document to template style changes ( 2018-01-25 15:01:38 +0200 )

10 0 How do I begin page numbers on page 2 in Writer ( 2016-11-06 18:39:00 +0200 )

10 0 How do you increase fontsize on the LibeOffice (writer) toolbar and dropdown meuns?? ( 2016-08-16 20:35:40 +0200 )

15 0 LibreOffice 4 Won't Start ( 2016-03-01 21:37:56 +0200 )

15 0 In copying text from the web is there as option to paste it directly in the default format of the working document? ( 2016-02-20 18:42:35 +0200 )

15 0 Maintaining Formatting in Referenced Cells ( 2016-02-20 06:55:19 +0200 )

15 0 how to calculate date difference ( 2016-02-19 10:42:17 +0200 )

15 0 Empty files ( 2016-02-18 14:08:43 +0200 )

10 0 I create a table of contents up to Header 1 but Title entries are shown ( 2015-12-28 04:29:05 +0200 )

15 0 Cannot install 5.0.4 .deb Linux package ( 2015-12-20 13:41:47 +0200 )

10 0 Cannot install 5.0.4 .deb Linux package ( 2015-12-20 13:41:45 +0200 )

15 0 Is there an alternative to downloading LibreOffice? ( 2015-11-12 20:40:16 +0200 )

15 0 Will my simple macros work on linux? ( 2015-11-12 16:01:49 +0200 )

15 0 Writer : How can I move images outside the page? ( 2015-11-12 06:32:57 +0200 )

15 0 Trying to open *.doc file ( 2015-11-12 02:15:41 +0200 )

15 0 How to get " =C2^3-NN" in calc? ( 2015-11-07 23:45:47 +0200 )

15 0 Is there a way to create buttons that trigger toolbars to appear? ( 2015-11-06 23:35:56 +0200 )

15 0 how can I make a macro exclusive to one spreadsheet ( 2015-11-06 07:24:00 +0200 )

15 0 Why does LibreOffice use the wrong font style when writing? ( 2015-11-05 23:25:39 +0200 )

15 0 Download of 4.1 Ends with Incomplete .dmg File ( 2015-11-04 15:42:15 +0200 )

15 0 Empty cell as result of formula ( 2015-11-03 21:47:59 +0200 )

15 0 normal.ott does not exist ( 2015-11-03 08:28:51 +0200 )

15 0 How to delete unwanted Styles and Formatting options in LibreOffice? ( 2015-11-03 01:49:01 +0200 )

15 0 Libre Office printing ( 2015-11-02 05:21:23 +0200 )

15 0 installer require more space than selected in options ( 2015-11-02 05:15:29 +0200 )

15 0 What is a "torrent" file? ( 2015-11-02 02:41:33 +0200 )

15 0 How do I turn off comments that have been permanently displayed? ( 2015-10-28 03:01:55 +0200 )

15 0 Using styles for background cell color in table? ( 2015-10-27 20:11:15 +0200 )

15 0 Change default sort options in Calc? ( 2015-10-27 12:31:11 +0200 )

15 0 Auto size column width on protected worksheet ( 2015-10-27 01:45:33 +0200 )

15 0 Mass inserting images. ( 2015-10-26 19:47:27 +0200 )

15 0 Calc: how to properly reference cells from other sheet? ( 2015-10-26 15:54:51 +0200 )

15 0 Trying to create a template with UK english, different font colors ( 2015-10-26 15:32:39 +0200 )

15 0 menus appear and disappear ( 2015-10-26 14:59:00 +0200 )

15 0 writer issues ( 2015-10-26 04:13:43 +0200 )

15 0 Common Errors in Libre Office 4.0.0.3 ( 2015-10-21 14:03:12 +0200 )

10 0 How do I ignore cells with #N/A in a function? ( 2015-05-11 11:36:49 +0200 )

15 0 How do I ignore cells with #N/A in a function? ( 2015-04-17 14:17:58 +0200 )

10 0 envelopeaddress ( 2015-03-19 10:30:33 +0200 )

10 0 CALC: Auto recalc does not work. ( 2015-02-26 16:38:57 +0200 )

10 0 can not update existing writer document to template style changes ( 2015-02-06 10:29:18 +0200 )

2 0 Loading Libre on a laptop that does not have internet access. ( 2015-01-23 04:40:19 +0200 )

2 0 Can I use template-changer 1.2.7 in LibreOffice4 Writer ( 2015-01-23 04:37:16 +0200 )

2 0 artistic edges ( 2015-01-23 04:22:57 +0200 )

2 0 Select multiple cells of a table in Writer like in Calc ( 2015-01-23 04:21:51 +0200 )

2 0 How do I install the simple service invoice template? ( 2015-01-23 04:20:26 +0200 )

15 0 Function Help please ( 2015-01-20 22:40:12 +0200 )

0 -5 Function Help please ( 2015-01-20 22:01:29 +0200 )

15 0 Function Help please ( 2015-01-20 22:01:28 +0200 )

0 -5 Function Help please ( 2015-01-20 22:01:27 +0200 )

15 0 Function Help please ( 2015-01-20 21:57:22 +0200 )

10 0 Function Help please ( 2015-01-20 21:57:17 +0200 )

15 0 can not update existing writer document to template style changes ( 2015-01-15 04:42:30 +0200 )

10 0 can not update existing writer document to template style changes ( 2015-01-11 06:14:52 +0200 )

10 0 how to open winmail.dat files ( 2015-01-02 03:38:13 +0200 )

1 0 Libre Office 4.3.5 is insecure and does not install on Mac Book Pro ( 2014-12-31 23:32:23 +0200 )

0 -2 Libre Office 4.3.5 is insecure and does not install on Mac Book Pro ( 2014-12-31 23:32:13 +0200 )

10 0 How do I begin page numbers on page 2 in Writer ( 2014-12-28 20:48:40 +0200 )

15 0 How do I get LO 3.5 to recognize my jre? ( 2014-07-15 21:35:15 +0200 )

0 -10 How do I switch between documents on a Mac? ( 2014-06-21 02:28:59 +0200 )

0 -5 Calc: Hide columns but use data ( 2014-05-24 18:03:15 +0200 )

10 0 Fixed Head Row ( 2014-05-24 12:23:40 +0200 )

15 0 How do you increase fontsize on the LibeOffice (writer) toolbar and dropdown meuns?? ( 2014-04-18 16:39:28 +0200 )

10 0 How do you increase fontsize on the LibeOffice (writer) toolbar and dropdown meuns?? ( 2014-03-24 20:21:34 +0200 )

10 0 How do you increase fontsize on the LibeOffice (writer) toolbar and dropdown meuns?? ( 2014-03-23 14:45:56 +0200 )

15 0 Select price from cell where item is matching price description ( 2014-02-24 08:39:24 +0200 )

10 0 Stop the scrolling floating page notification ( 2014-01-16 08:07:17 +0200 )

10 0 Properties Window ( 2014-01-05 15:54:41 +0200 )

10 0 Is there an alternative to downloading LibreOffice? ( 2013-11-10 22:14:27 +0200 )

10 0 Will my simple macros work on linux? ( 2013-11-01 10:14:50 +0200 )

15 0 print row numbers of a Calc sheet ( 2013-10-07 18:57:16 +0200 )

10 0 artistic edges ( 2013-09-26 16:16:25 +0200 )

10 0 print row numbers of a Calc sheet ( 2013-08-13 15:24:34 +0200 )

10 0 Saving Drawing to make Watermark ( Problem Fixed) ( 2013-08-11 10:26:48 +0200 )

15 0 Saving Drawing to make Watermark ( Problem Fixed) ( 2013-08-11 10:25:17 +0200 )

10 0 How do I install the simple service invoice template? ( 2013-08-11 01:41:52 +0200 )

10 0 Libreoffice Writer - PDF Export with Bookmarks or Contents ( 2013-08-08 22:39:18 +0200 )

10 0 Libreoffice Writer - PDF Export with Bookmarks or Contents ( 2013-08-08 18:27:24 +0200 )

10 0 Is font embedding in LO 4.1 automatic, or must I enable/select it? ( 2013-08-05 00:28:04 +0200 )

15 0 Is font embedding in LO 4.1 automatic, or must I enable/select it? ( 2013-08-05 00:27:56 +0200 )

10 0 I have a nine page document. I want a footer on page 2, 3, 4, 5, and 7. How do I do it? ( 2013-08-05 00:21:16 +0200 )

10 0 is there a problem with Windows downloads?i ( 2013-08-05 00:17:03 +0200 )

10 0 Freezing Headings in Calc ( 2013-08-05 00:13:10 +0200 )

10 0 Select multiple cells of a table in Writer like in Calc ( 2013-08-03 19:52:31 +0200 )

10 0 Is font embedding in LO 4.1 automatic, or must I enable/select it? ( 2013-07-27 10:22:32 +0200 )

10 0 I have a nine page document. I want a footer on page 2, 3, 4, 5, and 7. How do I do it? ( 2013-07-27 09:53:20 +0200 )

10 0 Is font embedding in LO 4.1 automatic, or must I enable/select it? ( 2013-07-26 22:40:58 +0200 )

0 -5 How to turn off text correction performed by LibreOffice Writer? ( 2013-07-19 22:56:04 +0200 )

15 0 How to turn off text correction performed by LibreOffice Writer? ( 2013-07-19 22:56:01 +0200 )

10 0 How to turn off text correction performed by LibreOffice Writer? ( 2013-07-19 22:55:58 +0200 )

15 0 vlookup not working unless I press delete after search criterion ( 2013-07-18 19:55:26 +0200 )

1 0 Why does AskLibO need access to my friend lists? ( 2013-07-14 02:57:06 +0200 )

0 -2 Why does AskLibO need access to my friend lists? ( 2013-07-14 02:52:58 +0200 )

10 0 vlookup not working unless I press delete after search criterion ( 2013-07-12 22:32:00 +0200 )

10 0 Why is Horizontal Line broken in 4.0.1? ( 2013-07-02 21:19:44 +0200 )

15 0 Inserting horizontal line issue in libreoffice 4.0 ( 2013-07-02 21:18:57 +0200 )

10 0 Inserting horizontal line issue in libreoffice 4.0 ( 2013-07-02 21:15:58 +0200 )